Regional Weather Roundup
Issued by NWS Charleston, SC

Home | Current Version | Previous Version | Text Only | Print | Product List | Glossary On
Versions: 1 2 3 4 5 6 7 8 9 10 11 12 13 14 15 16 17 18 19 20 21 22 23 24 25 26 27 28 29 30 31 32 33 34 35 36 37 38 39 40 41 42 43 44 45 46 47 48 49 50
000
ASUS42 KCHS 221827
RWRCHS

Regional Weather Roundup
National Weather Service Charleston SC
100 PM EST MON JAN 22 2018

NOTE: "fair" indicates few or no clouds below 12,000 feet with no
significant weather and/or obstructions to visibility.

Not all stations are quality controlled. Use data with caution,
especially dewpoint observations.

SCZ027-030-031-034>040-042>050-221900-
...Southeast South Carolina...

CITY           SKY/WX    TMP DP  RH WIND       PRES   REMARKS
N Charleston   PTSUNNY   70  57  63 VRB3      30.14F
6HR MIN TEMP:  42; 6HR MAX TEMP:  70; 6HR PCP:  0.01;

Waterfront Prk NOT AVBL
Mount Pleasant FAIR      68  61  77 CALM      30.13F
Johns Island   FAIR      70  61  73 E6        30.13F
Pinopolis        N/A     52  48  87 CALM      30.08F
Moncks Corner  MOCLDY    68  54  60 E6        30.12F
Summerville    FAIR      70  55  60 SE7       30.14F
Beaufort MCAS  PTSUNNY   68  57  68 CALM      30.13F
6HR MIN TEMP:  44; 6HR MAX TEMP:  68;

Beaufort Arpt  CLOUDY    68  57  68 NE3       30.12F
Hilton Head Is NOT AVBL
Walterboro     CLOUDY    70  57  64 S7        30.13F
Allendale      MOCLDY    72  57  60 VRB7      30.10F

...Southern Midlands and Pee Dee...

CITY           SKY/WX    TMP DP  RH WIND       PRES   REMARKS
Georgetown     MOCLDY    59  59 100 CALM      30.16F
Kingstree      FAIR      63  50  63 E3        30.14F
Orangeburg     PTSUNNY   66  50  56 S6        30.13F
6HR MIN TEMP:  38; 6HR MAX TEMP:  66;

Barnwell         N/A     70  59  68 S7        30.11F
Aiken          MOCLDY    64  50  59 SE12      30.12F
Manning        FAIR     N/A N/A N/A MISG      30.13F
Columbia       PTSUNNY   62  44  51 E7        30.13F
6HR MIN TEMP:  38; 6HR MAX TEMP:  62; 6HR PCP: TRACE;

Sumter         CLOUDY    61  41  47 E3        30.12F
6HR MIN TEMP:  37; 6HR MAX TEMP:  61;

Florence       CLOUDY    61  46  57 CALM      30.15F
6HR MIN TEMP:  36; 6HR MAX TEMP:  60;

Myrtle Beach   RAIN      55  50  83 CALM      30.19  FOG
N Myrtle Beach CLOUDY    58  52  80 SE6       30.17F
6HR MIN TEMP:  37; 6HR MAX TEMP:  60; 6HR PCP: TRACE;


$$

GAZ063-065-086>088-099>101-113>116-118-119-134>141-150-221900-
...Southeast Georgia...

CITY           SKY/WX    TMP DP  RH WIND       PRES   REMARKS
Savannah Arpt  PTSUNNY   73  60  63 S10       30.12F
6HR MIN TEMP:  42; 6HR MAX TEMP:  74;

Hunter AAF     FAIR      72  61  68 SE7       30.09F
6HR MIN TEMP:  46; 6HR MAX TEMP:  72;

Fort Stewart   PTSUNNY   73  61  64 S7        30.08F
6HR MIN TEMP:  42; 6HR MAX TEMP:  73;

Statesboro     CLOUDY    72  56  56 S7        30.10F
Sylvania       MOCLDY    72  62  71 S7        30.11F
Claxton        CLOUDY    73  62  68 SE3       30.10F

...CSRA, Central and far Southeast Georgia...

CITY           SKY/WX    TMP DP  RH WIND       PRES   REMARKS
Thomson        FAIR      67  55  66 SW8       30.12F
Augusta-Bush   FAIR      64  50  60 E6        30.11F
6HR MIN TEMP:  38; 6HR MAX TEMP:  65;

Augusta-Daniel FAIR      62  50  64 SE8       30.11F
Swainsboro     CLOUDY    72  61  68 S12       30.09F
Vidalia        CLOUDY    72  63  73 SW6       30.09F
Eastman        MOCLDY    72  53  50 S13       30.09F
Hazlehurst     MOCLDY    74  56  53 SW10      30.07F
Alma           PTSUNNY   74  60  61 S10       30.09F
6HR MIN TEMP:  46; 6HR MAX TEMP:  75;

Waycross       PTSUNNY   75  59  55 SW10G16   30.08F
Jesup          MOCLDY    75  57  53 S7G16     30.09F
Baxley         PTSUNNY   73  59  60 SW15      30.08F
Brunswick      FAIR      73  61  64 S13G18    30.11F
Saint Simons   FAIR      71  62  73 SE7       30.13F
6HR MIN TEMP:  54; 6HR MAX TEMP:  71;


$$

SCZ027-028-034-036>038-045-046-048>050-GAZ119-141-221900-
...Lake and Supplemental Coastal Observations...

STATION/POSITION TIME  TEMP    WIND        PRES    WAVE   SWELL
                       AIR SEA DIR/SP/G            HT/PER HT/PER/DIR
                 (UTC) (F)     (DEG/KT/KT) (MB)    (FT/S) (FT/S/D)
Winyah Bay       1745   53      50/  4     1022.0F
Lake Murray      1820   59     130/  3/  5 1018.6F
ACE Basin NERRS  1745   70     100/  3     1021.0F
Fort Pulaski     1800   52 46  110/  5/  5 1020.5
Sapelo Island    1800   73     170/  7     1020.0

$$

ANZ835-935-AMZ111-154-330-350-352-354-370-450-454-472-221900-
...C-MAN and Buoy Observations...

STATION/POSITION TIME  TEMP    WIND        PRES    WAVE   SWELL
                       AIR SEA DIR/SP/G            HT/PER HT/PER/DIR
                 (UTC) (F)     (DEG/KT/KT) (MB)    (FT/S) (FT/S/D)
Buoy 41004       1810   70 70  180/ 12/ 14 1020.5
Buoy 41008       1750   59 53  110/  6/  6 1020.0F   2/ 5   2/130/ 5
Folly Beach CMAN 1800   55      50/  5/  6 1021.2F
Capers Nearshore 1808   51 51   40/  8/ 10 1020.5F
Fripp Nearshore  1808   50 48   40/  4/  6 1019.5F


STATION/POSITION TIME  TEMP    WIND        PRES    WAVE   SWELL
                       AIR SEA DIR/SP/G            HT/PER HT/PER/DIR
                 (UTC) (F)     (DEG/KT/KT) (MB)    (FT/S) (FT/S/D)
5E St. Marys GA  1800      53                N/A     2/11
Frying Pan Buoy  1810   69 67  170/  8/ 10 1020.9
Buoy 41025       1810   65 73  210/  2/  6 1022.7
Cape Lookout NC  1800           40/  5/  6 1022.3F
Buoy 41002       1750   69 70  140/ 10/ 12 1022.3F   2/10   2/ 90/10
Buoy 41010       NOT AVBL
St Augustine FL  1800   59 53  170/  3/  3 1019.8F


$$




USA.gov is the U.S. government's official web portal to all federal, state and local government web resources and services.